Time,TemperatureF,DewpointF,PressureIn,WindDirection,WindDirectionDegrees,WindSpeedMPH,WindSpeedGustMPH,Humidity,HourlyPrecipIn,Conditions,Clouds,dailyrainin,SoftwareType,DateUTC
2013-03-06 00:06:00,5.0,3.0,30.28,NW,320,9.0,12.0,91,-99.99,,,-99.99,,2013-03-06 07:06:00,
2013-03-06 00:12:00,5.0,3.0,30.28,NNW,330,11.0,12.0,92,-99.99,,,-99.99,,2013-03-06 07:12:00,
2013-03-06 00:17:00,5.0,3.0,30.28,NNW,340,8.0,12.0,91,-99.99,,,-99.99,,2013-03-06 07:17:00,
2013-03-06 00:22:00,4.0,2.0,30.28,NNW,340,13.0,13.0,90,-99.99,,,-99.99,,2013-03-06 07:22:00,
2013-03-06 00:32:00,4.0,2.0,30.28,NE,40,9.0,13.0,92,-99.99,,,-99.99,,2013-03-06 07:32:00,
2013-03-06 00:37:00,4.0,1.0,30.28,North,350,13.0,13.0,91,-99.99,,,-99.99,,2013-03-06 07:37:00,
2013-03-06 00:47:00,4.0,2.0,30.28,WNW,290,11.0,13.0,92,-99.99,,,-99.99,,2013-03-06 07:47:00,
2013-03-06 00:52:00,4.0,2.0,30.27,NW,310,9.0,13.0,92,-99.99,,,-99.99,,2013-03-06 07:52:00,
2013-03-06 00:57:00,4.0,2.0,30.27,NNW,340,9.0,13.0,93,-99.99,,,-99.99,,2013-03-06 07:57:00,
2013-03-06 01:02:00,4.0,2.0,30.28,North,350,9.0,11.0,92,-99.99,,,-99.99,,2013-03-06 08:02:00,
2013-03-06 01:07:00,4.0,1.0,30.28,WNW,300,7.0,11.0,91,-99.99,,,-99.99,,2013-03-06 08:07:00,
2013-03-06 01:12:00,3.0,1.0,30.28,North,350,9.0,10.0,91,-99.99,,,-99.99,,2013-03-06 08:12:00,
2013-03-06 01:22:00,3.0,1.0,30.28,NE,40,7.0,13.0,91,-99.99,,,-99.99,,2013-03-06 08:22:00,
2013-03-06 01:32:00,2.0,0.0,30.28,North,350,10.0,14.0,92,-99.99,,,-99.99,,2013-03-06 08:32:00,
2013-03-06 01:41:00,3.0,2.0,30.27,NNW,330,11.0,11.0,93,-99.99,,,-99.99,,2013-03-06 08:41:00,
2013-03-06 01:46:00,3.0,2.0,30.27,North,10,8.0,12.0,93,-99.99,,,-99.99,,2013-03-06 08:46:00,
2013-03-06 01:52:00,3.0,1.0,30.27,NNW,340,12.0,12.0,92,-99.99,,,-99.99,,2013-03-06 08:52:00,
2013-03-06 02:02:00,2.0,0.0,30.27,NNW,330,9.0,11.0,91,-99.99,,,-99.99,,2013-03-06 09:02:00,
2013-03-06 02:12:00,3.0,1.0,30.26,NNW,340,5.0,11.0,92,-99.99,,,-99.99,,2013-03-06 09:12:00,
2013-03-06 02:17:00,3.0,1.0,30.26,NNW,330,9.0,9.0,92,-99.99,,,-99.99,,2013-03-06 09:17:00,
2013-03-06 02:22:00,2.0,0.0,30.26,NNW,340,11.0,11.0,91,-99.99,,,-99.99,,2013-03-06 09:22:00,
2013-03-06 02:27:00,2.0,0.0,30.26,North,350,5.0,11.0,91,-99.99,,,-99.99,,2013-03-06 09:27:00,
2013-03-06 02:36:00,2.0,0.0,30.25,North,0,9.0,11.0,91,-99.99,,,-99.99,,2013-03-06 09:36:00,
2013-03-06 02:42:00,2.0,1.0,30.25,NW,320,12.0,12.0,92,-99.99,,,-99.99,,2013-03-06 09:42:00,
2013-03-06 02:52:00,2.0,0.0,30.25,North,350,8.0,10.0,92,-99.99,,,-99.99,,2013-03-06 09:52:00,
2013-03-06 02:57:00,3.0,1.0,30.25,NNW,330,8.0,8.0,92,-99.99,,,-99.99,,2013-03-06 09:57:00,
2013-03-06 03:02:00,3.0,1.0,30.25,NW,310,5.0,8.0,93,-99.99,,,-99.99,,2013-03-06 10:02:00,
2013-03-06 03:07:00,3.0,1.0,30.24,WNW,300,0.0,6.0,92,-99.99,,,-99.99,,2013-03-06 10:07:00,
2013-03-06 03:17:00,2.0,0.0,30.24,North,350,8.0,8.0,91,-99.99,,,-99.99,,2013-03-06 10:17:00,
2013-03-06 03:27:00,1.0,-1.0,30.23,North,0,0.0,1.0,91,-99.99,,,-99.99,,2013-03-06 10:27:00,
2013-03-06 03:37:00,1.0,-1.0,30.23,NNE,30,6.0,11.0,92,-99.99,,,-99.99,,2013-03-06 10:37:00,
2013-03-06 03:46:00,1.0,0.0,30.23,NNW,330,10.0,12.0,94,-99.99,,,-99.99,,2013-03-06 10:46:00,
2013-03-06 03:52:00,2.0,0.0,30.22,NNW,340,11.0,13.0,94,-99.99,,,-99.99,,2013-03-06 10:52:00,
2013-03-06 03:57:00,2.0,1.0,30.23,North,0,8.0,12.0,94,-99.99,,,-99.99,,2013-03-06 10:57:00,
2013-03-06 04:07:00,1.0,0.0,30.23,NNW,340,14.0,14.0,92,-99.99,,,-99.99,,2013-03-06 11:07:00,
2013-03-06 04:12:00,1.0,-1.0,30.23,NNW,340,7.0,12.0,92,-99.99,,,-99.99,,2013-03-06 11:12:00,
2013-03-06 04:17:00,1.0,0.0,30.23,West,280,7.0,12.0,93,-99.99,,,-99.99,,2013-03-06 11:17:00,
2013-03-06 04:22:00,1.0,0.0,30.23,NNW,330,6.0,10.0,93,-99.99,,,-99.99,,2013-03-06 11:22:00,
2013-03-06 04:27:00,1.0,0.0,30.23,West,280,5.0,9.0,93,-99.99,,,-99.99,,2013-03-06 11:27:00,
2013-03-06 04:32:00,1.0,-1.0,30.23,WNW,300,7.0,9.0,93,-99.99,,,-99.99,,2013-03-06 11:32:00,
2013-03-06 04:37:00,1.0,-1.0,30.23,North,10,5.0,10.0,92,-99.99,,,-99.99,,2013-03-06 11:37:00,
2013-03-06 04:47:00,1.0,-1.0,30.23,NNE,30,7.0,12.0,93,-99.99,,,-99.99,,2013-03-06 11:47:00,
2013-03-06 04:57:00,1.0,-1.0,30.23,NNW,330,13.0,13.0,94,-99.99,,,-99.99,,2013-03-06 11:57:00,
2013-03-06 05:07:00,1.0,0.0,30.22,North,0,7.0,10.0,93,-99.99,,,-99.99,,2013-03-06 12:07:00,
2013-03-06 05:12:00,1.0,-1.0,30.22,North,350,7.0,11.0,93,-99.99,,,-99.99,,2013-03-06 12:12:00,
2013-03-06 05:22:00,2.0,0.0,30.22,North,350,7.0,9.0,94,-99.99,,,-99.99,,2013-03-06 12:22:00,
2013-03-06 05:32:00,1.0,0.0,30.22,WSW,240,0.0,6.0,93,-99.99,,,-99.99,,2013-03-06 12:32:00,
2013-03-06 05:42:00,0.0,-1.0,30.23,WSW,240,0.0,0.0,92,-99.99,,,-99.99,,2013-03-06 12:42:00,
2013-03-06 05:52:00,0.0,-1.0,30.23,WNW,300,7.0,10.0,93,-99.99,,,-99.99,,2013-03-06 12:52:00,
2013-03-06 05:57:00,0.0,-1.0,30.22,NW,320,6.0,10.0,93,-99.99,,,-99.99,,2013-03-06 12:57:00,
2013-03-06 06:02:00,0.0,-1.0,30.22,NW,310,11.0,11.0,93,-99.99,,,-99.99,,2013-03-06 13:02:00,
2013-03-06 06:12:00,0.0,-1.0,30.22,North,0,7.0,9.0,93,-99.99,,,-99.99,,2013-03-06 13:12:00,
2013-03-06 06:22:00,1.0,0.0,30.22,NNW,330,11.0,12.0,95,-99.99,,,-99.99,,2013-03-06 13:22:00,
2013-03-06 06:32:00,2.0,1.0,30.22,North,0,6.0,13.0,95,-99.99,,,-99.99,,2013-03-06 13:32:00,
2013-03-06 06:37:00,2.0,0.0,30.22,North,0,9.0,9.0,94,-99.99,,,-99.99,,2013-03-06 13:37:00,
2013-03-06 06:47:00,2.0,0.0,30.22,North,0,10.0,11.0,94,-99.99,,,-99.99,,2013-03-06 13:47:00,
2013-03-06 06:56:00,1.0,0.0,30.22,NNW,330,8.0,10.0,93,-99.99,,,-99.99,,2013-03-06 13:56:00,
2013-03-06 07:02:00,1.0,0.0,30.21,WNW,300,6.0,11.0,94,-99.99,,,-99.99,,2013-03-06 14:02:00,
2013-03-06 07:12:00,1.0,0.0,30.21,NNW,340,14.0,14.0,94,-99.99,,,-99.99,,2013-03-06 14:12:00,
2013-03-06 07:17:00,2.0,0.0,30.22,NNW,340,9.0,13.0,94,-99.99,,,-99.99,,2013-03-06 14:17:00,
2013-03-06 07:22:00,2.0,0.0,30.21,WNW,290,6.0,12.0,94,-99.99,,,-99.99,,2013-03-06 14:22:00,
2013-03-06 07:27:00,3.0,2.0,30.21,North,0,10.0,12.0,95,-99.99,,,-99.99,,2013-03-06 14:27:00,
2013-03-06 07:37:00,6.0,4.0,30.22,North,0,7.0,11.0,93,-99.99,,,-99.99,,2013-03-06 14:37:00,
2013-03-06 07:47:00,7.0,5.0,30.21,North,10,3.0,6.0,90,-99.99,,,-99.99,,2013-03-06 14:47:00,
2013-03-06 07:57:00,8.0,5.0,30.21,North,0,6.0,10.0,87,-99.99,,,-99.99,,2013-03-06 14:57:00,
2013-03-06 08:07:00,8.0,4.0,30.21,North,10,7.0,9.0,86,-99.99,,,-99.99,,2013-03-06 15:07:00,
2013-03-06 08:17:00,8.0,6.0,30.21,NNE,20,7.0,8.0,88,-99.99,,,-99.99,,2013-03-06 15:17:00,
2013-03-06 08:27:00,9.0,6.0,30.21,NE,50,0.0,7.0,88,-99.99,,,-99.99,,2013-03-06 15:27:00,
2013-03-06 08:32:00,11.0,8.0,30.21,West,270,4.0,7.0,88,-99.99,,,-99.99,,2013-03-06 15:32:00,
2013-03-06 08:37:00,11.0,8.0,30.21,West,260,0.0,4.0,87,-99.99,,,-99.99,,2013-03-06 15:37:00,
2013-03-06 08:42:00,12.0,8.0,30.21,West,260,0.0,0.0,85,-99.99,,,-99.99,,2013-03-06 15:42:00,
2013-03-06 08:52:00,13.0,9.0,30.21,North,350,0.0,6.0,85,-99.99,,,-99.99,,2013-03-06 15:52:00,
2013-03-06 09:02:00,14.0,10.0,30.21,North,350,0.0,0.0,84,-99.99,,,-99.99,,2013-03-06 16:02:00,
2013-03-06 09:07:00,15.0,10.0,30.21,South,180,0.0,3.0,83,-99.99,,,-99.99,,2013-03-06 16:07:00,
2013-03-06 09:12:00,15.0,10.0,30.21,South,180,0.0,0.0,83,-99.99,,,-99.99,,2013-03-06 16:12:00,
2013-03-06 09:17:00,15.0,11.0,30.21,South,180,0.0,0.0,82,-99.99,,,-99.99,,2013-03-06 16:17:00,
2013-03-06 09:22:00,16.0,11.0,30.21,South,180,0.0,0.0,82,-99.99,,,-99.99,,2013-03-06 16:22:00,
2013-03-06 09:32:00,17.0,12.0,30.20,South,180,0.0,0.0,80,-99.99,,,-99.99,,2013-03-06 16:32:00,
2013-03-06 09:37:00,17.0,12.0,30.20,South,180,0.0,0.0,80,-99.99,,,-99.99,,2013-03-06 16:37:00,
2013-03-06 09:42:00,18.0,13.0,30.20,South,180,0.0,0.0,80,-99.99,,,-99.99,,2013-03-06 16:42:00,
2013-03-06 09:47:00,18.0,13.0,30.20,South,180,0.0,0.0,80,-99.99,,,-99.99,,2013-03-06 16:47:00,
2013-03-06 09:56:00,19.0,13.0,30.20,South,180,0.0,0.0,78,-99.99,,,-99.99,,2013-03-06 16:56:00,
2013-03-06 10:02:00,19.0,13.0,30.19,South,180,0.0,0.0,78,-99.99,,,-99.99,,2013-03-06 17:02:00,
2013-03-06 10:12:00,20.0,14.0,30.20,South,180,0.0,0.0,77,-99.99,,,-99.99,,2013-03-06 17:12:00,
2013-03-06 10:17:00,20.0,14.0,30.19,South,180,0.0,0.0,76,-99.99,,,-99.99,,2013-03-06 17:17:00,
2013-03-06 10:22:00,21.0,14.0,30.19,South,180,0.0,0.0,75,-99.99,,,-99.99,,2013-03-06 17:22:00,
2013-03-06 10:27:00,21.0,14.0,30.19,South,180,5.0,0.0,76,-99.99,,,-99.99,,2013-03-06 17:27:00,
2013-03-06 10:37:00,21.0,15.0,30.19,South,180,0.0,0.0,75,-99.99,,,-99.99,,2013-03-06 17:37:00,
2013-03-06 10:42:00,21.0,15.0,30.19,South,180,0.0,0.0,75,-99.99,,,-99.99,,2013-03-06 17:42:00,
2013-03-06 10:47:00,21.0,15.0,30.19,South,180,0.0,0.0,75,-99.99,,,-99.99,,2013-03-06 17:47:00,
2013-03-06 10:56:00,21.0,15.0,30.19,South,180,0.0,0.0,75,-99.99,,,-99.99,,2013-03-06 17:56:00,
2013-03-06 11:02:00,21.0,15.0,30.18,East,80,3.0,0.0,75,-99.99,,,-99.99,,2013-03-06 18:02:00,
2013-03-06 11:12:00,22.0,15.0,30.18,ESE,110,0.0,6.0,76,-99.99,,,-99.99,,2013-03-06 18:12:00,
2013-03-06 11:22:00,23.0,16.0,30.18,South,180,4.0,5.0,75,-99.99,,,-99.99,,2013-03-06 18:22:00,
2013-03-06 11:32:00,23.0,16.0,30.18,SSE,150,0.0,5.0,74,-99.99,,,-99.99,,2013-03-06 18:32:00,
2013-03-06 11:42:00,23.0,16.0,30.17,South,180,0.0,3.0,73,-99.99,,,-99.99,,2013-03-06 18:42:00,
2013-03-06 11:47:00,23.0,16.0,30.17,South,180,0.0,3.0,74,-99.99,,,-99.99,,2013-03-06 18:47:00,
2013-03-06 11:57:00,24.0,17.0,30.17,East,100,0.0,5.0,73,-99.99,,,-99.99,,2013-03-06 18:57:00,
2013-03-06 12:02:00,24.0,17.0,30.16,East,100,0.0,3.0,72,-99.99,,,-99.99,,2013-03-06 19:02:00,
2013-03-06 12:11:00,24.0,17.0,30.16,ESE,110,0.0,2.0,72,-99.99,,,-99.99,,2013-03-06 19:11:00,
2013-03-06 12:17:00,25.0,17.0,30.16,ESE,110,0.0,2.0,73,-99.99,,,-99.99,,2013-03-06 19:17:00,
2013-03-06 12:26:00,25.0,18.0,30.15,ESE,110,0.0,0.0,73,-99.99,,,-99.99,,2013-03-06 19:26:00,
2013-03-06 12:32:00,26.0,19.0,30.15,ESE,110,0.0,0.0,74,-99.99,,,-99.99,,2013-03-06 19:32:00,
2013-03-06 12:42:00,27.0,19.0,30.14,SE,140,0.0,2.0,70,-99.99,,,-99.99,,2013-03-06 19:42:00,
2013-03-06 12:51:00,27.0,19.0,30.14,SE,140,3.0,0.0,71,-99.99,,,-99.99,,2013-03-06 19:51:00,
2013-03-06 12:57:00,28.0,21.0,30.14,ESE,120,0.0,4.0,74,-99.99,,,-99.99,,2013-03-06 19:57:00,
2013-03-06 13:02:00,28.0,20.0,30.14,ESE,120,0.0,3.0,71,-99.99,,,-99.99,,2013-03-06 20:02:00,
2013-03-06 13:07:00,28.0,19.0,30.14,ESE,120,0.0,3.0,70,-99.99,,,-99.99,,2013-03-06 20:07:00,
2013-03-06 13:17:00,29.0,20.0,30.13,South,170,0.0,6.0,70,-99.99,,,-99.99,,2013-03-06 20:17:00,
2013-03-06 13:22:00,29.0,21.0,30.13,South,170,0.0,0.0,71,-99.99,,,-99.99,,2013-03-06 20:22:00,
2013-03-06 13:32:00,29.0,21.0,30.12,SW,220,7.0,7.0,71,-99.99,,,-99.99,,2013-03-06 20:32:00,
2013-03-06 13:37:00,30.0,21.0,30.12,South,170,0.0,8.0,70,-99.99,,,-99.99,,2013-03-06 20:37:00,
2013-03-06 13:42:00,30.0,21.0,30.12,SSE,150,0.0,2.0,69,-99.99,,,-99.99,,2013-03-06 20:42:00,
2013-03-06 13:47:00,29.0,20.0,30.12,SSE,150,0.0,0.0,66,-99.99,,,-99.99,,2013-03-06 20:47:00,
2013-03-06 13:57:00,29.0,20.0,30.12,South,170,0.0,0.0,67,-99.99,,,-99.99,,2013-03-06 20:57:00,
2013-03-06 14:02:00,29.0,20.0,30.11,SSE,150,0.0,5.0,68,-99.99,,,-99.99,,2013-03-06 21:02:00,
2013-03-06 14:11:00,29.0,20.0,30.11,ESE,110,0.0,6.0,68,-99.99,,,-99.99,,2013-03-06 21:11:00,
2013-03-06 14:22:00,28.0,20.0,30.11,East,80,5.0,8.0,69,-99.99,,,-99.99,,2013-03-06 21:22:00,
2013-03-06 14:27:00,28.0,20.0,30.11,ESE,110,0.0,8.0,70,-99.99,,,-99.99,,2013-03-06 21:27:00,
2013-03-06 14:37:00,28.0,20.0,30.10,East,90,6.0,9.0,71,-99.99,,,-99.99,,2013-03-06 21:37:00,
2013-03-06 14:42:00,28.0,21.0,30.10,East,100,3.0,9.0,72,-99.99,,,-99.99,,2013-03-06 21:42:00,
2013-03-06 14:52:00,29.0,20.0,30.10,SSE,160,0.0,9.0,71,-99.99,,,-99.99,,2013-03-06 21:52:00,
2013-03-06 15:02:00,29.0,21.0,30.10,SE,140,6.0,9.0,71,-99.99,,,-99.99,,2013-03-06 22:02:00,
2013-03-06 15:11:00,29.0,21.0,30.10,SE,140,5.0,11.0,71,-99.99,,,-99.99,,2013-03-06 22:11:00,
2013-03-06 15:16:00,29.0,21.0,30.09,ESE,120,8.0,13.0,71,-99.99,,,-99.99,,2013-03-06 22:16:00,
2013-03-06 15:27:00,30.0,21.0,30.10,SSE,160,0.0,10.0,68,-99.99,,,-99.99,,2013-03-06 22:27:00,
2013-03-06 15:32:00,31.0,21.0,30.10,SE,130,4.0,6.0,67,-99.99,,,-99.99,,2013-03-06 22:32:00,
2013-03-06 15:42:00,31.0,21.0,30.11,ENE,60,5.0,6.0,66,-99.99,,,-99.99,,2013-03-06 22:42:00,
2013-03-06 15:52:00,31.0,21.0,30.11,SE,130,0.0,4.0,67,-99.99,,,-99.99,,2013-03-06 22:52:00,
2013-03-06 15:57:00,30.0,21.0,30.10,ESE,110,0.0,4.0,67,-99.99,,,-99.99,,2013-03-06 22:57:00,
2013-03-06 16:07:00,30.0,21.0,30.11,ENE,70,0.0,5.0,68,-99.99,,,-99.99,,2013-03-06 23:07:00,
2013-03-06 16:12:00,29.0,21.0,30.10,East,100,7.0,7.0,69,-99.99,,,-99.99,,2013-03-06 23:12:00,
2013-03-06 16:22:00,29.0,21.0,30.09,East,90,5.0,7.0,71,-99.99,,,-99.99,,2013-03-06 23:22:00,
2013-03-06 16:32:00,29.0,21.0,30.10,SE,140,0.0,9.0,71,-99.99,,,-99.99,,2013-03-06 23:32:00,
2013-03-06 16:41:00,29.0,21.0,30.10,SE,130,3.0,8.0,72,-99.99,,,-99.99,,2013-03-06 23:41:00,
2013-03-06 16:47:00,30.0,21.0,30.09,ENE,60,0.0,5.0,70,-99.99,,,-99.99,,2013-03-06 23:47:00,
2013-03-06 16:52:00,30.0,22.0,30.10,ESE,110,0.0,8.0,72,-99.99,,,-99.99,,2013-03-06 23:52:00,
2013-03-06 17:02:00,30.0,21.0,30.09,SSW,200,0.0,3.0,69,-99.99,,,-99.99,,2013-03-07 00:02:00,
2013-03-06 17:12:00,29.0,21.0,30.09,SSE,150,3.0,0.0,70,-99.99,,,-99.99,,2013-03-07 00:12:00,
2013-03-06 17:17:00,29.0,21.0,30.09,SSE,150,0.0,5.0,71,-99.99,,,-99.99,,2013-03-07 00:17:00,
2013-03-06 17:27:00,28.0,21.0,30.09,SSE,150,0.0,0.0,72,-99.99,,,-99.99,,2013-03-07 00:27:00,
2013-03-06 17:37:00,28.0,21.0,30.09,SSE,150,0.0,0.0,74,-99.99,,,-99.99,,2013-03-07 00:37:00,
2013-03-06 17:47:00,28.0,21.0,30.09,SSE,150,0.0,0.0,75,-99.99,,,-99.99,,2013-03-07 00:47:00,
2013-03-06 17:52:00,27.0,20.0,30.09,SSE,150,0.0,0.0,74,-99.99,,,-99.99,,2013-03-07 00:52:00,
2013-03-06 18:02:00,26.0,20.0,30.10,NW,320,0.0,0.0,76,-99.99,,,-99.99,,2013-03-07 01:02:00,
2013-03-06 18:07:00,26.0,19.0,30.09,NW,320,0.0,5.0,76,-99.99,,,-99.99,,2013-03-07 01:07:00,
2013-03-06 18:17:00,25.0,19.0,30.09,West,270,0.0,6.0,78,-99.99,,,-99.99,,2013-03-07 01:17:00,
2013-03-06 18:27:00,24.0,19.0,30.10,WNW,290,0.0,0.0,81,-99.99,,,-99.99,,2013-03-07 01:27:00,
2013-03-06 18:37:00,23.0,18.0,30.10,NNW,330,0.0,4.0,80,-99.99,,,-99.99,,2013-03-07 01:37:00,
2013-03-06 18:47:00,23.0,17.0,30.10,NW,320,0.0,6.0,79,-99.99,,,-99.99,,2013-03-07 01:47:00,
2013-03-06 18:57:00,22.0,17.0,30.10,WNW,290,0.0,8.0,81,-99.99,,,-99.99,,2013-03-07 01:57:00,
2013-03-06 19:02:00,22.0,17.0,30.09,NE,40,0.0,6.0,80,-99.99,,,-99.99,,2013-03-07 02:02:00,
2013-03-06 19:12:00,21.0,16.0,30.10,West,260,0.0,0.0,82,-99.99,,,-99.99,,2013-03-07 02:12:00,
2013-03-06 19:22:00,21.0,16.0,30.10,NE,40,0.0,6.0,80,-99.99,,,-99.99,,2013-03-07 02:22:00,
2013-03-06 19:32:00,22.0,17.0,30.10,South,170,0.0,11.0,82,-99.99,,,-99.99,,2013-03-07 02:32:00,
2013-03-06 19:42:00,21.0,17.0,30.10,NW,320,7.0,7.0,82,-99.99,,,-99.99,,2013-03-07 02:42:00,
2013-03-06 19:47:00,21.0,16.0,30.10,NNE,30,7.0,7.0,81,-99.99,,,-99.99,,2013-03-07 02:47:00,
2013-03-06 19:52:00,21.0,16.0,30.11,NNW,330,9.0,9.0,81,-99.99,,,-99.99,,2013-03-07 02:52:00,
2013-03-06 19:57:00,21.0,16.0,30.10,WNW,290,0.0,8.0,82,-99.99,,,-99.99,,2013-03-07 02:57:00,
2013-03-06 20:02:00,21.0,16.0,30.10,NNW,330,5.0,5.0,82,-99.99,,,-99.99,,2013-03-07 03:02:00,
2013-03-06 20:07:00,21.0,16.0,30.09,NNW,330,3.0,5.0,81,-99.99,,,-99.99,,2013-03-07 03:07:00,
2013-03-06 20:12:00,21.0,16.0,30.09,WNW,300,7.0,7.0,82,-99.99,,,-99.99,,2013-03-07 03:12:00,
2013-03-06 20:17:00,20.0,16.0,30.09,NNW,340,11.0,11.0,82,-99.99,,,-99.99,,2013-03-07 03:17:00,
2013-03-06 20:22:00,21.0,16.0,30.10,North,10,3.0,11.0,82,-99.99,,,-99.99,,2013-03-07 03:22:00,
2013-03-06 20:27:00,21.0,16.0,30.10,North,0,7.0,7.0,83,-99.99,,,-99.99,,2013-03-07 03:27:00,
2013-03-06 20:32:00,21.0,17.0,30.10,West,280,0.0,10.0,83,-99.99,,,-99.99,,2013-03-07 03:32:00,
2013-03-06 20:41:00,21.0,16.0,30.10,South,170,0.0,3.0,82,-99.99,,,-99.99,,2013-03-07 03:41:00,
2013-03-06 20:47:00,21.0,16.0,30.10,NW,310,5.0,6.0,83,-99.99,,,-99.99,,2013-03-07 03:47:00,
2013-03-06 20:52:00,21.0,16.0,30.10,West,280,1.0,8.0,83,-99.99,,,-99.99,,2013-03-07 03:52:00,
2013-03-06 20:57:00,20.0,16.0,30.10,North,0,4.0,7.0,82,-99.99,,,-99.99,,2013-03-07 03:57:00,
2013-03-06 21:02:00,20.0,16.0,30.10,North,0,5.0,6.0,82,-99.99,,,-99.99,,2013-03-07 04:02:00,
2013-03-06 21:07:00,20.0,16.0,30.10,North,10,0.0,6.0,82,-99.99,,,-99.99,,2013-03-07 04:07:00,
2013-03-06 21:12:00,20.0,15.0,30.10,North,10,0.0,3.0,82,-99.99,,,-99.99,,2013-03-07 04:12:00,
2013-03-06 21:17:00,19.0,15.0,30.10,NW,320,3.0,6.0,83,-99.99,,,-99.99,,2013-03-07 04:17:00,
2013-03-06 21:27:00,19.0,14.0,30.10,NNW,330,9.0,9.0,83,-99.99,,,-99.99,,2013-03-07 04:27:00,
2013-03-06 21:32:00,18.0,14.0,30.10,North,0,0.0,9.0,84,-99.99,,,-99.99,,2013-03-07 04:32:00,
2013-03-06 21:37:00,18.0,14.0,30.10,NNW,330,10.0,10.0,84,-99.99,,,-99.99,,2013-03-07 04:37:00,
2013-03-06 21:47:00,18.0,14.0,30.10,NW,320,4.0,8.0,84,-99.99,,,-99.99,,2013-03-07 04:47:00,
2013-03-06 21:57:00,17.0,14.0,30.10,NNW,330,5.0,7.0,85,-99.99,,,-99.99,,2013-03-07 04:57:00,
2013-03-06 22:02:00,17.0,13.0,30.10,NNW,330,5.0,8.0,85,-99.99,,,-99.99,,2013-03-07 05:02:00,
2013-03-06 22:07:00,17.0,13.0,30.10,NNW,330,9.0,10.0,86,-99.99,,,-99.99,,2013-03-07 05:07:00,
2013-03-06 22:12:00,17.0,14.0,30.10,NW,310,10.0,10.0,88,-99.99,,,-99.99,,2013-03-07 05:12:00,
2013-03-06 22:17:00,17.0,15.0,30.10,NNW,340,11.0,12.0,89,-99.99,,,-99.99,,2013-03-07 05:17:00,
2013-03-06 22:22:00,17.0,14.0,30.10,NNE,20,6.0,12.0,87,-99.99,,,-99.99,,2013-03-07 05:22:00,
2013-03-06 22:31:00,17.0,13.0,30.10,West,260,4.0,9.0,86,-99.99,,,-99.99,,2013-03-07 05:31:00,
2013-03-06 22:37:00,17.0,13.0,30.10,NNW,330,5.0,6.0,86,-99.99,,,-99.99,,2013-03-07 05:37:00,
2013-03-06 22:46:00,16.0,13.0,30.10,North,350,0.0,8.0,87,-99.99,,,-99.99,,2013-03-07 05:46:00,
2013-03-06 22:52:00,16.0,13.0,30.10,NNW,330,12.0,12.0,89,-99.99,,,-99.99,,2013-03-07 05:52:00,
2013-03-06 22:57:00,16.0,14.0,30.10,North,350,9.0,11.0,90,-99.99,,,-99.99,,2013-03-07 05:57:00,
2013-03-06 23:07:00,16.0,14.0,30.10,NNW,330,12.0,12.0,89,-99.99,,,-99.99,,2013-03-07 06:07:00,
2013-03-06 23:12:00,16.0,14.0,30.10,NNW,330,9.0,11.0,90,-99.99,,,-99.99,,2013-03-07 06:12:00,
2013-03-06 23:17:00,16.0,14.0,30.10,NNW,340,8.0,10.0,90,-99.99,,,-99.99,,2013-03-07 06:17:00,
2013-03-06 23:22:00,16.0,14.0,30.10,North,0,8.0,10.0,89,-99.99,,,-99.99,,2013-03-07 06:22:00,
2013-03-06 23:27:00,16.0,13.0,30.10,NW,320,7.0,9.0,88,-99.99,,,-99.99,,2013-03-07 06:27:00,
2013-03-06 23:32:00,16.0,13.0,30.10,NW,320,10.0,11.0,89,-99.99,,,-99.99,,2013-03-07 06:32:00,
2013-03-06 23:37:00,16.0,13.0,30.10,NNE,20,6.0,9.0,90,-99.99,,,-99.99,,2013-03-07 06:37:00,
2013-03-06 23:42:00,16.0,13.0,30.10,North,0,8.0,8.0,88,-99.99,,,-99.99,,2013-03-07 06:42:00,
2013-03-06 23:51:00,16.0,13.0,30.10,NW,310,4.0,9.0,89,-99.99,,,-99.99,,2013-03-07 06:51:00,
2013-03-06 23:57:00,16.0,13.0,30.10,NNW,330,0.0,7.0,90,-99.99,,,-99.99,,2013-03-07 06:57:00,